RH
100 100 94 50 23 19 20 19 20 17 14 13 13 13 16 21 20 24 24 28 28 34 77 67 71 84 82 86 81 89 91 97 93 93 100 95 95 100
100 99 96 87 54 24 20 21 20 19 15 16 16 17 19 20 18 18 20 23 30 43 90 49 51 61 82 70 51 47 41 63 82 76 70 66 99 82
100 100 98 100 90 38 22 19 20 19 16 17 18 20 20 18 18 19 20 22 24 25 33 38 32 29 36 48 36 37 37 39 41 53 59 69 83 92
96 99 100 100 97 79 25 22 21 18 18 18 22 24 25 22 24 22 22 24 24 25 29 31 33 44 58 72 88 87 85 70 60 53 43 46 76 96
99 88 95 99 97 98 80 33 23 22 23 36 41 40 31 37 51 52 36 32 38 38 68 87 95 93 88 96 100 97 92 96 91 81 67 73 89 93
74 63 97 87 100 80 99 88 66 52 55 61 64 42 53 80 92 75 50 57 63 74 97 100 98 100 98 99 92 100 98 95 98 98 94 94 96 92
63 62 73 97 100 99 100 100 88 85 86 92 77 62 79 85 77 76 95 99 99 100 100 100 98 100 99 100 99 99 99 91 96 100 97 96 92 96
64 59 71 96 97 100 100 99 100 100 98 100 96 82 90 86 87 86 94 91 100 97 100 99 100 93 91 91 100 88 89 96 99 91 99 95 96 100
65 52 96 93 96 100 99 99 100 100 100 100 99 97 99 100 94 94 94 93 96 88 100 100 99 92 85 88 84 86 92 86 93 100 100 100 100 100
78 56 84 93 88 98 99 96 98 91 100 98 99 100 100 99 100 99 100 99 90 94 100 99 100 99 98 87 93 84 90 81 95 98 95 92 100 100
93 80 85 87 86 86 99 100 98 97 99 100 100 98 99 96 98 100 96 80 97 96 100 97 90 89 79 87 93 92 86 96 96 99 80 80 95 100
99 77 82 84 86 96 91 92 98 96 100 99 97 97 100 100 100 100 100 83 78 88 93 94 95 85 83 85 96 89 95 99 93 91 91 95 98 94
99 81 77 76 85 97 94 95 95 98 99 99 99 99 100 97 94 100 99 91 66 87 89 99 95 82 99 86 80 92 100 98 95 92 94 99 98 93
99 92 73 63 52 53 78 83 90 100 99 99 97 98 91 95 98 89 90 77 73 95 97 90 86 68 80 84 94 99 100 98 98 89 94 100 96 96
98 97 78 74 61 60 56 62 92 99 93 94 85 95 100 98 97 90 70 95 93 86 78 99 94 98 80 98 100 100 100 100 100 99 96 92 99 96
92 84 82 73 74 75 80 82 89 86 86 77 93 94 71 63 63 63 64 75 93 68 99 100 90 100 99 99 99 98 97 91 98 96 98 100 97 95
99 95 96 87 89 96 100 99 92 98 99 100 88 70 70 71 69 64 65 82 80 100 100 93 96 99 99 100 98 99 97 97 98 98 100 100 97 94
100 96 99 97 99 100 93 99 99 99 99 98 90 80 80 79 73 63 72 92 92 91 91 100 98 96 99 96 99 94 97 99 99 98 97 97 98 100
98 99 99 99 100 100 99 99 99 99 100 97 98 93 87 89 70 93 96 92 91 88 98 99 100 99 99 99 96 96 97 96 96 97 99 99 96 97
99 98 99 99 100 96 99 98 98 99 99 98 96 98 93 93 100 99 90 96 97 100 99 97 98 98 97 97 97 97 96 94 87 98 90 82 76 71
99 100 98 97 98 99 99 98 98 98 98 98 100 99 95 100 94 96 100 99 97 98 98 98 97 97 97 97 96 96 96 94 95 94 95 94 92 94
97 98 98 98 98 98 99 99 98 98 100 98 100 100 100 99 99 99 98 98 98 98 98 97 97 96 96 96 96 96 97 96 96 96 94 93 94 93
95 95 95 95 95 97 98 98 100 100 100 100 100 99 98 99 98 98 98 98 98 97 96 96 96 96 96 95 96 97 96 96 97 97 98 98 97 98
Wind_Speed
55 46 45 42 40 40 38 38 37 38 35 32 30 28 27 26 26 28 26 27 26 25 24 24 24 26 27 27 28 27 27 23 35 35 35 33 31 34
55 51 54 47 41 41 43 40 41 39 37 31 30 28 28 28 28 29 27 28 28 26 28 27 25 27 28 29 29 30 31 31 31 31 34 30 33 37
55 54 57 50 45 43 43 43 42 41 36 32 33 32 32 31 30 30 28 27 25 26 26 26 25 26 27 28 27 27 29 29 30 32 32 30 36 37
56 47 50 49 47 43 46 44 44 40 36 34 33 34 32 30 29 28 27 27 26 26 24 24 25 25 26 27 28 29 29 29 29 29 30 29 33 33
60 52 56 47 48 47 46 44 43 39 36 36 34 35 34 32 30 30 28 27 27 25 25 26 26 26 26 29 27 26 24 27 29 30 32 33 35 33
58 54 50 50 50 49 48 45 43 39 38 37 37 37 35 33 31 29 27 26 25 26 29 29 30 28 29 27 26 28 28 28 34 33 32 32 32 32
58 57 55 54 52 50 47 44 41 41 39 39 40 41 38 33 30 29 29 29 28 31 28 29 30 35 30 33 31 31 30 32 36 39 32 32 34 35
58 56 58 52 53 56 54 47 46 43 42 44 47 42 37 30 29 28 30 31 34 32 32 33 34 36 34 35 33 36 39 39 39 38 40 35 36 38
61 60 58 60 57 55 56 53 44 46 47 46 46 43 38 33 33 31 32 34 37 33 35 38 37 33 34 39 39 35 34 37 33 39 37 35 37 39
65 60 61 55 58 52 60 44 45 48 47 46 49 43 43 35 38 39 35 36 35 38 37 38 34 33 37 38 37 39 38 38 37 36 35 37 40 39
62 59 57 62 59 58 56 48 46 48 48 42 42 39 38 39 44 42 37 35 40 43 35 39 39 43 38 38 40 41 39 37 36 39 37 36 35 34
50 56 57 60 60 53 54 48 56 46 50 50 48 43 42 38 40 41 41 41 40 42 43 43 42 41 42 36 36 39 36 37 36 37 39 35 30 31
54 53 54 51 49 49 51 51 53 45 45 50 39 45 42 45 43 40 44 43 43 44 41 43 45 39 42 41 36 35 35 38 38 36 33 30 26 28
49 57 51 46 46 45 49 52 52 48 44 46 45 48 48 49 47 46 48 44 42 44 47 43 42 40 39 36 33 36 35 36 37 32 28 31 32 31
47 47 51 46 46 46 46 54 55 44 48 51 52 48 42 41 43 43 40 42 44 41 42 43 43 39 36 38 38 36 37 35 36 35 33 35 31 30
60 50 52 47 46 47 48 53 55 52 51 48 45 43 41 40 39 40 43 39 39 40 37 37 38 39 35 36 33 36 36 34 33 33 32 31 30 34
55 53 57 50 53 50 55 63 61 54 50 50 45 41 39 39 40 40 40 44 38 40 42 41 40 37 38 33 36 34 35 36 37 35 33 34 34 36
50 50 52 45 54 56 61 50 56 50 47 41 40 38 39 39 37 34 34 35 33 34 32 33 36 35 36 34 34 34 31 30 31 30 32 36 37 37
53 45 52 56 50 51 46 53 45 44 46 42 38 36 35 36 33 35 39 39 41 39 36 37 35 36 36 32 32 29 30 32 32 32 34 38 39 40
53 41 41 48 56 53 58 48 45 42 41 39 41 37 36 34 33 32 35 36 34 33 37 37 39 37 32 31 33 32 34 33 36 38 38 39 37 35
39 37 41 44 44 47 39 44 40 35 34 36 36 33 32 36 35 33 39 39 34 37 35 34 33 33 31 32 32 33 33 34 37 39 39 38 37 37
32 33 37 40 40 34 37 38 38 36 35 34 36 40 38 40 39 41 40 39 35 36 36 34 31 30 30 31 31 32 34 36 36 35 35 37 38 40
23 22 22 23 24 25 30 34 38 37 36 38 40 40 39 39 38 38 37 35 33 33 31 29 28 28 29 30 32 32 33 33 34 35 38 39 40 40
Wind_Direction
235 240 240 238 237 233 230 230 233 235 238 241 246 245 245 247 248 247 247 249 252 252 246 252 237 236 245 253 253 254 261 259 272 275 282 293 281 295
241 246 237 233 231 234 235 230 230 233 236 234 237 237 238 238 240 243 243 244 245 243 244 248 247 247 245 251 252 255 256 256 263 273 275 280 283 291
247 240 233 236 231 231 235 233 232 232 234 231 233 234 235 239 241 241 240 241 243 244 242 245 247 249 251 256 259 261 260 259 262 264 271 273 272 282
238 241 230 235 229 229 232 233 231 231 232 229 232 235 238 239 239 238 237 237 240 242 243 243 245 249 253 257 262 265 267 269 269 271 272 271 272 276
238 230 241 234 231 234 231 232 233 228 229 230 230 233 232 232 235 237 237 237 239 239 244 247 254 262 266 264 267 264 269 272 268 266 268 273 278 283
235 236 229 231 231 231 232 231 233 230 229 229 229 229 229 231 236 238 237 240 242 240 246 247 260 260 268 272 267 270 268 274 278 279 270 278 277 280
229 229 231 230 228 226 227 227 228 229 228 231 230 228 228 233 244 250 248 239 245 239 250 244 252 256 263 263 267 265 273 281 278 281 267 274 283 282
226 227 227 222 228 229 228 220 224 226 227 236 231 228 230 238 236 241 246 242 241 245 252 253 260 266 268 269 269 272 274 275 273 274 277 273 283 279
222 226 225 225 227 232 229 223 227 233 228 236 235 237 232 231 243 244 240 247 251 253 252 249 258 258 268 265 277 277 276 281 274 279 274 282 280 278
222 224 225 228 230 228 233 234 234 240 231 244 235 235 226 228 237 240 242 247 255 252 252 262 256 264 269 274 267 274 270 276 279 276 283 283 278 278
217 223 224 225 232 222 230 227 237 233 237 235 227 231 235 234 231 239 237 242 245 259 258 254 261 275 275 272 267 269 280 279 273 278 286 288 283 274
216 219 222 224 223 227 232 233 236 234 223 227 225 233 229 234 241 240 248 250 258 258 263 266 273 275 278 268 272 276 275 269 277 278 287 288 282 283
229 216 220 224 223 218 225 234 232 225 228 235 234 243 250 246 243 241 250 248 261 258 260 265 270 271 270 281 277 272 274 277 283 280 278 275 281 286
227 214 220 224 222 225 222 229 231 226 240 234 237 239 239 236 240 246 252 257 258 257 265 266 269 271 274 271 271 267 267 270 273 276 267 261 275 278
221 223 222 223 227 224 223 234 228 230 232 236 238 230 235 239 240 251 253 248 259 260 266 258 274 262 269 268 275 270 269 272 276 268 267 273 271 271
232 227 223 231 231 227 227 231 229 234 232 232 231 233 236 239 242 247 252 252 258 263 255 261 271 259 261 271 257 271 270 271 272 267 268 268 264 273
219 226 228 225 219 222 230 221 226 223 222 226 229 232 234 242 247 252 255 255 256 254 261 265 263 268 258 257 263 255 272 263 261 269 273 266 270 280
216 216 207 217 213 219 227 210 218 224 221 223 227 233 241 246 250 257 255 256 255 257 251 247 257 265 255 267 254 270 262 265 261 260 265 274 278 284
217 210 208 214 224 221 220 221 221 222 221 226 234 242 245 251 250 249 247 249 261 262 252 249 253 258 258 255 264 265 264 267 270 268 268 274 278 279
214 209 209 208 214 227 218 205 217 222 224 231 239 240 242 247 238 237 247 253 248 242 248 250 253 248 247 253 258 263 267 270 269 269 272 276 277 276
204 217 218 214 206 205 211 213 213 220 229 238 240 244 247 235 243 248 245 238 244 243 244 242 235 241 249 256 260 264 266 265 266 270 274 276 277 278
191 195 206 212 218 211 219 213 218 228 236 242 239 240 239 238 241 238 233 236 234 235 232 234 238 244 254 259 260 262 264 267 270 273 276 279 281 281
139 147 163 181 189 193 207 216 224 227 228 230 231 229 227 228 229 226 223 222 221 224 230 238 246 251 255 258 263 267 269 271 272 275 278 279 279 280